TimeEDT,TemperatureF,Dew PointF,Humidity,Sea Level PressureIn,VisibilityMPH,Wind Direction,Wind SpeedMPH,Gust SpeedMPH,PrecipitationIn,Events,Conditions,WindDirDegrees,DateUTC
12:54 AM,39.2,39.2,100,-9999,0.1,South,9.2,-,N/A,Fog,Fog,180,2012-09-29 04:54:00
1:48 AM,37.4,37.4,100,-9999,0.1,South,9.2,-,N/A,Fog,Fog,180,2012-09-29 05:48:00
2:52 AM,39.2,39.2,100,-9999,0.1,SSE,6.9,-,N/A,Fog,Fog,150,2012-09-29 06:52:00
3:48 AM,39.2,39.2,100,-9999,0.1,SSE,6.9,-,N/A,Fog,Fog,150,2012-09-29 07:48:00
4:51 AM,37.4,37.4,100,-9999,0.1,ESE,11.5,-,N/A,Fog,Light Drizzle,120,2012-09-29 08:51:00
5:52 AM,37.4,37.4,100,-9999,0.1,ESE,12.7,-,N/A,Fog,Light Drizzle,120,2012-09-29 09:52:00
6:47 AM,39.2,39.2,100,-9999,0.1,ESE,13.8,-,N/A,Fog,Light Drizzle,120,2012-09-29 10:47:00
7:47 AM,39.2,39.2,100,-9999,0.1,ESE,20.7,27.6,N/A,Fog,Light Drizzle,110,2012-09-29 11:47:00
8:53 AM,39.2,39.2,100,-9999,0.1,ESE,17.3,-,N/A,Fog,Light Drizzle,110,2012-09-29 12:53:00
9:49 AM,39.2,39.2,100,-9999,0.1,East,15.0,-,N/A,Fog,Light Drizzle,100,2012-09-29 13:49:00
10:52 AM,41.0,41.0,100,-9999,0.1,East,8.1,-,N/A,Fog,Fog,100,2012-09-29 14:52:00
11:53 AM,42.8,42.8,100,-9999,0.1,SE,3.5,-,N/A,Fog,Fog,130,2012-09-29 15:53:00
12:55 PM,44.6,44.6,100,-9999,0.1,Calm,Calm,-,N/A,Fog,Fog,0,2012-09-29 16:55:00
1:51 PM,42.8,42.8,100,-9999,0.1,SE,6.9,-,N/A,Fog,Fog,140,2012-09-29 17:51:00
2:49 PM,42.8,42.8,100,-9999,0.1,SE,3.5,-,N/A,Fog,Fog,140,2012-09-29 18:49:00
3:51 PM,42.8,42.8,100,-9999,0.1,ESE,3.5,-,N/A,Fog,Fog,120,2012-09-29 19:51:00
4:49 PM,42.8,42.8,100,-9999,0.1,ESE,5.8,-,N/A,Fog,Fog,110,2012-09-29 20:49:00
5:48 PM,41.0,41.0,100,-9999,0.1,ESE,9.2,-,N/A,Fog,Fog,110,2012-09-29 21:48:00
6:55 PM,39.2,39.2,100,-9999,0.0,East,8.1,-,N/A,Fog,Fog,90,2012-09-29 22:55:00
7:49 PM,39.2,39.2,100,-9999,0.0,East,10.4,-,N/A,Fog,Fog,90,2012-09-29 23:49:00
8:54 PM,39.2,39.2,100,-9999,0.0,ESE,19.6,-,N/A,Fog,Fog,110,2012-09-30 00:54:00
9:57 PM,39.2,39.2,100,-9999,0.1,ESE,17.3,-,N/A,Fog,Fog,110,2012-09-30 01:57:00
10:47 PM,39.2,39.2,100,-9999,0.0,ESE,24.2,-,N/A,Fog,Fog,110,2012-09-30 02:47:00
11:49 PM,39.2,39.2,100,-9999,0.0,ESE,23.0,-,N/A,Fog,Fog,110,2012-09-30 03:49:00